EW9355 Weather Reports


time (UTC)temp
C
wind
direction
speed
KPH
gust
KPH
rain 1hr
cm
rain 24hr
cm
rain mn
cm
humidity
%
barometer
mb
20260505223041 32 272 1.6 9.7 0.00 0.00 0.00 52 1000.4
20260505221533 32 188 0.0 12.9 0.00 0.00 0.00 50 1000.4
20260505220039 33 275 0.0 12.9 0.00 0.00 0.00 51 1000.4
20260505214547 33 242 0.0 6.4 0.00 0.00 0.00 52 1000.5
20260505213040 32 254 1.6 14.5 0.00 0.00 0.00 52 1000.7
20260505211524 32 237 4.8 19.3 0.00 0.00 0.00 53 1000.9
20260505210023 32 254 3.2 14.5 0.00 0.00 0.00 55 1000.9
20260505204527 32 248 3.2 17.7 0.00 0.00 0.00 53 1001.2
20260505203019 32 144 1.6 16.1 0.00 0.00 0.00 55 1001.2
20260505201517 31 242 6.4 17.7 0.00 0.00 0.00 56 1001.4
20260505200012 31 254 3.2 20.9 0.00 0.00 0.00 58 1001.5
20260505194510 31 261 3.2 14.5 0.00 0.00 0.00 59 1001.7
20260505193019 30 161 1.6 12.9 0.00 0.00 0.00 61 1001.7
20260505191502 30 229 1.6 12.9 0.00 0.00 0.00 64 1001.7
20260505190119 29 157 1.6 12.9 0.00 0.00 0.00 64 1001.8
20260505184607 28 248 1.6 12.9 0.00 0.00 0.00 67 1002.0
20260505183055 28 242 0.0 16.1 0.00 0.00 0.00 66 1002.1
20260505181552 28 255 1.6 6.4 0.00 0.00 0.00 66 1002.2
20260505180051 28 79 1.6 12.9 0.00 0.00 0.00 68 1002.2
20260505174548 28 178 1.6 12.9 0.00 0.00 0.00 67 1002.3
20260505173046 27 236 1.6 12.9 0.00 0.00 0.00 68 1002.2
20260505171543 27 239 0.0 11.3 0.00 0.00 0.00 71 1002.2
20260505170039 26 244 1.6 11.3 0.00 0.00 0.00 71 1002.3
20260505164539 26 268 0.0 6.4 0.00 0.00 0.00 71 1002.3
20260505163036 26 279 0.0 12.9 0.00 0.00 0.00 72 1002.3
20260505161535 26 271 3.2 20.9 0.00 0.00 0.00 72 1002.2
20260505153031 25 252 1.6 19.3 0.00 0.00 0.00 75 1002.1
20260505151524 25 235 1.6 14.5 0.00 0.00 0.00 76 1002.4
20260505124505 22 101 0.0 6.4 0.00 0.00 0.00 84 1001.9
20260505123004 21 146 1.6 11.3 0.00 0.00 0.00 84 1001.7
20260505121504 21 131 3.2 14.5 0.00 0.00 0.00 84 1001.5
20260505120101 21 254 0.0 9.7 0.00 0.00 0.00 85 1001.5
20260505114605 21 140 0.0 12.9 0.00 0.00 0.00 85 1001.3
20260505113100 21 262 0.0 12.9 0.00 0.00 0.00 84 1001.3
20260505111602 21 268 1.6 12.9 0.00 0.00 0.00 84 1001.3
20260505101555 21 140 0.0 11.3 0.00 0.00 0.00 84 1001.2
20260505100101 21 128 0.0 6.4 0.00 0.00 0.00 84 1001.4
20260505094553 21 92 0.0 12.9 0.00 0.00 0.00 84 1001.6
20260505093051 21 159 0.0 8.0 0.00 0.00 0.00 84 1001.6
20260505091551 21 128 0.0 14.5 0.00 0.00 0.00 84 1001.7
20260505090100 21 275 0.0 12.9 0.00 0.00 0.00 84 1001.7
20260505084548 21 200 1.6 16.1 0.00 0.00 0.00 84 1001.8
20260505083052 21 234 1.6 14.5 0.00 0.00 0.00 84 1001.8
20260505081549 21 188 0.0 6.4 0.00 0.00 0.00 83 1002.0
20260505080054 21 144 0.0 11.3 0.00 0.00 0.00 83 1001.9
20260505074542 21 221 0.0 12.9 0.00 0.00 0.00 82 1002.2
20260505073052 21 154 1.6 9.7 0.00 0.00 0.00 82 1002.5
20260505071537 21 116 0.0 6.4 0.00 0.00 0.00 81 1002.7
20260505070035 22 174 0.0 11.3 0.00 0.00 0.00 81 1002.9
20260505064533 22 141 0.0 16.1 0.00 0.00 0.00 80 1002.9
20260505063035 22 173 0.0 17.7 0.00 0.00 0.00 80 1003.0
20260505061531 22 274 0.0 8.0 0.00 0.00 0.00 79 1003.0
20260505060034 22 144 0.0 8.0 0.00 0.00 0.00 78 1003.1
20260505054530 22 148 1.6 14.5 0.00 0.00 0.00 78 1003.1
20260505053028 22 130 0.0 8.0 0.00 0.00 0.00 77 1003.2
20260505051526 22 135 0.0 9.7 0.00 0.00 0.00 76 1003.4
20260505041538 23 126 1.6 14.5 0.00 0.00 0.00 73 1003.7
20260505040022 23 155 0.0 9.7 0.00 0.00 0.00 73 1003.9
20260505034521 23 98 1.6 6.4 0.00 0.00 0.00 73 1003.6
20260505033021 23 137 0.0 6.4 0.00 0.00 0.00 72 1003.5
20260505031520 23 126 0.0 11.3 0.00 0.00 0.00 71 1003.6
20260505030021 23 140 0.0 12.9 0.00 0.00 0.00 70 1003.7
20260505024522 23 146 0.0 14.5 0.00 0.00 0.00 70 1003.6
20260505023019 23 119 0.0 8.0 0.00 0.00 0.00 70 1003.6
20260505021523 23 154 0.0 9.7 0.00 0.00 0.00 69 1003.5
20260505020019 23 128 0.0 11.3 0.00 0.00 0.00 69 1003.3
20260505014518 24 156 0.0 6.4 0.00 0.00 0.00 68 1003.5
20260505013020 24 147 0.0 4.8 0.00 0.00 0.00 67 1003.5
20260505011524 24 147 0.0 11.3 0.00 0.00 0.00 66 1003.4
20260505010015 25 215 0.0 4.8 0.00 0.00 0.00 65 1003.4
20260505004529 25 128 0.0 6.4 0.00 0.00 0.00 64 1003.5
20260505003014 25 128 0.0 9.7 0.00 0.00 0.00 63 1003.5
20260505001513 26 143 0.0 16.1 0.00 0.00 0.00 62 1003.8
20260505000021 26 194 0.0 19.3 0.00 0.00 0.00 61 1003.6
20260504234510 26 232 1.6 20.9 0.00 0.00 0.00 60 1003.9
20260504233010 26 129 0.0 16.1 0.00 0.00 0.00 61 1003.9
20260504231508 26 131 1.6 16.1 0.00 0.00 0.00 59 1004.0
20260504230014 27 146 3.2 16.1 0.00 0.00 0.00 57 1004.2
20260504224506 27 136 1.6 16.1 0.00 0.00 0.00 58 1004.4